Lid_Strength_Index
7 7 7 7 7 7 8 7 9 8 7 6 5 5 4 4 4 4 4 3 3 3 2 1 2 1 1 1 1 1 1 1 1 1 0 0 0 0 -0 -0 -0 -0 -0 -0
8 7 7 8 7 7 7 7 7 7 7 5 4 3 4 4 4 4 4 3 3 3 2 2 2 1 1 1 1 1 1 1 1 1 0 1 0 0 0 0 0 -0 0 0
10 7 8 10 8 7 7 6 6 8 6 4 5 5 5 5 4 4 4 3 3 3 2 2 2 1 2 1 1 1 1 1 1 1 1 1 1 1 1 1 0 0 0 0
10 8 13 8 5 5 6 6 5 6 5 4 5 5 4 3 4 4 3 3 3 2 2 2 1 1 1 1 1 1 2 2 1 1 1 1 1 1 1 1 0 1 0 0
11 11 9 8 6 6 7 7 5 6 6 5 4 4 4 3 3 3 3 3 2 2 2 1 1 1 1 1 1 2 2 2 2 1 1 1 1 1 1 1 2 3 1 1
9 12 13 8 5 4 5 9 5 6 6 6 5 7 5 3 3 3 2 2 2 2 2 2 1 1 2 2 2 2 2 2 1 1 1 2 1 1 1 1 2 2 1 1
10 11 9 6 5 5 10 9 5 5 5 5 6 5 4 3 3 2 2 2 2 2 2 2 1 1 2 2 2 1 1 1 1 1 1 1 1 1 1 2 1 1 2 1
10 11 13 4 5 8 6 5 5 4 4 5 4 4 3 3 3 3 2 2 2 2 2 1 1 1 2 2 1 1 1 2 1 1 1 1 1 1 1 1 1 2 1 2
8 8 5 5 5 4 4 5 4 4 4 4 4 4 3 3 3 3 2 2 2 2 2 2 2 2 2 1 1 1 1 2 2 1 1 1 1 2 2 1 2 2 2 2
8 6 5 5 4 4 3 4 3 3 3 3 4 3 3 3 3 3 2 2 2 2 3 3 2 2 1 1 1 1 2 2 2 2 2 1 1 1 1 2 2 2 2 2
8 7 5 5 4 4 3 3 3 3 3 3 3 3 3 3 3 3 3 2 2 3 3 3 2 2 2 1 1 2 2 3 2 2 2 6 8 4 3 7 3 2 1 1
11 6 6 5 3 3 3 3 3 3 3 2 2 3 3 3 3 3 3 3 3 3 3 3 3 2 2 2 2 3 3 2 3 4 5 6 6 8 12 12 13 12 12 6
7 5 4 4 3 2 3 3 3 3 2 3 2 2 2 3 3 4 3 3 4 4 3 3 3 3 2 2 2 2 3 3 5 5 5 5 5 6 8 10 12 13 13 12
7 5 6 4 5 3 3 2 2 2 2 2 2 2 2 3 4 3 4 3 4 4 5 4 5 6 4 2 3 4 4 7 3 3 3 3 4 5 4 4 5 7 11 9
7 6 5 4 3 3 2 3 3 3 3 3 2 2 3 4 4 4 3 5 6 7 7 8 8 7 6 5 6 6 4 3 4 2 3 3 3 3 3 4 5 6 6 8
6 6 5 4 4 3 3 3 4 4 3 3 3 4 4 4 5 4 5 5 6 8 7 7 8 7 6 5 4 4 4 5 3 3 3 4 4 4 5 5 5 4 4 3
7 8 6 5 4 4 4 3 3 3 3 3 3 4 4 5 5 6 6 6 6 7 7 6 6 5 3 3 3 4 4 5 4 4 4 5 5 5 5 5 5 3 2 4
5 5 4 3 4 4 3 3 3 3 4 3 3 4 4 5 6 6 5 5 6 7 7 7 6 5 5 4 4 4 4 5 5 5 5 5 5 4 4 3 2 3 4 6
4 4 4 3 3 3 3 3 3 3 3 3 3 4 4 3 3 3 3 4 6 6 6 5 5 6 6 5 5 5 6 5 5 5 5 6 4 3 2 2 3 4 4 4
4 4 4 3 3 3 3 3 3 3 3 3 3 4 4 4 4 5 5 6 6 5 4 4 5 6 6 5 5 6 5 5 5 4 3 3 3 3 4 5 4 4 3 3
5 5 4 4 4 3 3 3 3 3 3 3 3 4 5 4 3 3 4 5 4 4 5 5 5 5 5 5 5 5 5 4 3 3 3 3 3 4 3 3 3 3 3 3
5 5 5 4 4 4 3 3 3 3 3 4 4 4 4 3 4 4 4 5 4 6 5 6 5 4 3 3 3 2 2 2 2 2 3 3 3 3 2 2 3 3 3 2
4 4 4 4 4 4 3 3 3 3 3 3 3 2 2 3 2 3 4 2 2 4 4 3 4 3 3 2 2 2 3 3 2 2 2 2 2 2 2 2 2 2 1 1
4 4 4 3 3 4 4 4 3 3 3 2 2 1 2 3 2 2 1 4 5 4 4 4 4 4 3 3 3 2 2 2 2 2 3 5 2 1 1 1 1 0 0 2
3 3 3 3 4 4 4 3 3 3 3 2 2 1 1 1 2 2 2 2 4 3 3 5 4 3 2 2 2 2 2 2 2 1 1 1 1 0 0 1 1 1 1 1
3 3 3 3 3 3 3 2 3 3 2 2 3 2 2 1 1 0 0 1 1 2 1 1 1 1 1 1 1 1 1 1 0 0 1 0 0 0 0 -0 0 0 1 1
2 4 2 3 2 2 2 2 3 3 3 3 3 2 1 0 1 1 3 1 1 1 1 1 1 1 0 0 0 0 -0 -1 3 1 1 1 0 0 -0 -0 -0 0 1 1